This is the latest recevied weather packets stored in our database for station/object EA3ANS-1. If no packets are shown the sender has not sent any weather packets the latest 10 day(s).
| Time | Temp. | Humidity | Pressure | Rain* | Wind** | Luminosity | Snow |
|---|---|---|---|---|---|---|---|
| 1777572109 | 21.11° C | - | 1015 hPa | 0 mm | 4.02 m/s, 167° | - | - |
| 1777571507 | 21.67° C | - | 1014.9 hPa | 0 mm | 3.13 m/s, 179° | - | - |
| 1777567912 | 22.78° C | - | 1014.6 hPa | 0 mm | 4.02 m/s, 190° | - | - |
| 1777565515 | 23.33° C | - | 1014.9 hPa | 0 mm | 4.92 m/s, 122° | - | - |
| 1777564913 | 23.89° C | - | 1014.9 hPa | 0 mm | 3.58 m/s, 152° | - | - |
| 1777564312 | 24.44° C | - | 1014.9 hPa | 0 mm | 3.13 m/s, 166° | - | - |
| 1777563117 | 23.89° C | - | 1014.9 hPa | 0 mm | 4.02 m/s, 125° | - | - |
| 1777562514 | 24.44° C | - | 1014.8 hPa | 0 mm | 4.02 m/s, 142° | - | - |
| 1777557677 | 26.11° C | - | 1014.9 hPa | 0 mm | 3.58 m/s, 165° | - | - |
| 1777557065 | 25.56° C | - | 1015.2 hPa | 0 mm | 3.58 m/s, 138° | - | - |
| 1777555870 | 25.56° C | - | 1015 hPa | 0 mm | 3.13 m/s, 103° | - | - |
| 1777555274 | 25.56° C | - | 1015.3 hPa | 0 mm | 3.13 m/s, 79° | - | - |
| 1777551674 | 23.89° C | - | 1015.6 hPa | 0 mm | 3.13 m/s, 121° | - | - |
| 1777551077 | 24.44° C | - | 1015.7 hPa | 0 mm | 3.58 m/s, 156° | - | - |
| 1777549882 | 24.44° C | - | 1016 hPa | 0 mm | 1.79 m/s, 110° | - | - |
| 1777548681 | 23.33° C | - | 1016 hPa | 0 mm | 2.24 m/s, 113° | - | - |
| 1777548064 | 24.44° C | - | 1016.1 hPa | 0 mm | 3.13 m/s, 132° | - | - |
| 1777547467 | 23.89° C | - | 1016.2 hPa | 0 mm | 2.68 m/s, 84° | - | - |
| 1777546251 | 23.33° C | - | 1016.3 hPa | 0 mm | 2.68 m/s, 186° | - | - |
| 1777545044 | 22.78° C | - | 1016.2 hPa | 0 mm | 2.68 m/s, 86° | - | - |
| 1777544447 | 22.22° C | - | 1016.3 hPa | 0 mm | 3.13 m/s, 113° | - | - |
| 1777543849 | 22.78° C | - | 1016.4 hPa | 0 mm | 2.24 m/s, 172° | - | - |
| 1777543252 | 22.22° C | - | 1016.3 hPa | 0 mm | 4.02 m/s, 150° | - | - |
| 1777542046 | 21.67° C | - | 1016.3 hPa | 0 mm | 3.58 m/s, 198° | - | - |
| 1777541449 | 21.11° C | - | 1016.1 hPa | 0 mm | 1.79 m/s, 231° | - | - |
* Rain latest hour (hover to see other rain measurements)
** Current wind speed in m/s (hover to see current wind gust speed)